Terminal Aerodrome Forecast
Issued by NWS Buffalo, NY

Home | Current Version | Previous Version | Text Only | Print | Product List | Glossary On
Versions: 1 2 3 4 5 6 7 8 9 10 11 12 13 14 15 16 17 18 19 20 21 22 23 24
722
FTUS41 KBUF 240255 AAA
TAFBUF
TAF AMD
KBUF 240255Z 2403/2424 12007KT P6SM BKN100
     FM240700 17010KT P6SM OVC080 WS020/22035KT
     FM241000 17010KT 6SM -RA OVC060 WS020/23045KT
     FM241200 17011KT 6SM -RA OVC025 WS020/24055KT
     FM241500 20013KT P6SM VCSH OVC035 WS020/25055KT
     FM241800 23016KT P6SM OVC020 WS020/25050KT=

USA.gov is the U.S. government's official web portal to all federal, state and local government web resources and services.